Montana Department of Transportation

Main Content

Accidents and Incidents Report

Hourly Weather Roundup

ASUS45 KTFX 201710

RWRMT 

MONTANA REGIONAL WEATHER ROUNDUP

NATIONAL WEATHER SERVICE GREAT FALLS MT

1100 AM MDT FRI JUL 20 2018



NOTE: "FAIR" INDICATES FEW OR NO CLOUDS BELOW 12000 FEET WITH NO

SIGNIFICANT WEATHER AND/OR OBSTRUCTIONS TO VISIBILITY.



MTZ001.007-043-201800-

WEST OF THE DIVIDE

  

CITY           SKY/WX    TMP DP  RH WIND       PRES   REMARKS

KALISPELL      FAIR      76  47  35 S10       29.96F                  

MISSOULA       FAIR      70  43  37 CALM      30.01F                  

BUTTE          FAIR      76  39  26 CALM      30.12F                  

MULLAN PASS    FAIR      59  29  31 VRB5      30.14S                  

ANACONDA         N/A     77  39  25 SE10      30.07F                  

DEER LODGE       N/A     79  46  31 SE6       30.08F                  

LIBBY            N/A     73  36  25 CALM      29.95F                  

PLAINS           N/A     73  43  34 CALM      29.99F                  

RONAN            N/A     75  37  25 CALM      30.00F                  

--------------------------------



MTZ008-052.055-201800-

SOUTHWEST MONTANA

  

CITY           SKY/WX    TMP DP  RH WIND       PRES   REMARKS

BOZEMAN        FAIR      76  53  44 VRB6      30.09F                  

DILLON         FAIR      72  47  40 W3        30.11F                  

ENNIS          SUNNY     79  36  21 VRB6      30.17S                  

W YELLOWSTONE  FAIR      66  39  37 CALM      30.23F                  

TWIN BRIDGES     N/A     74  40  29 S6        30.09                   

--------------------------------



MTZ009-010-012-014-046-048-049-054-201800-

EAST SLOPES AND CENTRAL MONTANA

  

CITY           SKY/WX    TMP DP  RH WIND       PRES   REMARKS

CUT BANK       FAIR      81  29  15 SW17G23   29.95F                  

GREAT FALLS    FAIR      84  32  15 SW8       29.98F                  

MALMSTROM AFB  FAIR      82  34  18 W8G17     29.98F                  

HELENA         FAIR      78  48  34 VRB3      30.01F                  

AUGUSTA        FAIR      78  36  21 SW12      30.00F                  

BOWMANS CRNR   FAIR      78  36  21 S16G23    29.99F                  

CHOTEAU          N/A     82  34  17 S12G22    29.99F                  

RAYNESFORD     FAIR      81  33  17 W7        30.01F                  

ULM            FAIR      82  38  21 CALM      29.98F                  

WHITE SULPHUR    N/A     77  48  36 S8G15     30.08F                  

--------------------------------



MTZ011-013-016-021-045-047-050-051-201800-

NORTH CENTRAL MONTANA

  

CITY           SKY/WX    TMP DP  RH WIND       PRES   REMARKS

HAVRE          FAIR      84  48  28 SW14      29.92S                  

LEWISTOWN      FAIR      78  53  41 CALM      30.04F                  

N BAR RANCH    FAIR      75  52  43 S8        30.10R                  

CHINOOK          N/A     82  55  39 E12G17    29.92F                  

DENTON         FAIR      85  46  25 W5        29.97F                  

GEYSER         FAIR      81  42  25 NW9       30.01F                  

GRASS RANGE    FAIR      77  54  44 E6        30.00F                  

JUDITH GAP     FAIR      73  54  52 S9        30.08S                  

ROY            FAIR      79  57  48 S20       30.00R                  

STANFORD       FAIR      80  45  29 NE7       30.04S                  

WINIFRED       FAIR      83  48  29 W10       30.00S                  

--------------------------------



MTZ017.020-022.027-061-062-201800-

NORTHEAST MONTANA

  

CITY           SKY/WX    TMP DP  RH WIND       PRES   REMARKS

GLASGOW        FAIR      81  56  42 SE15G21   30.01S                  

GLENDIVE       FAIR      75  60  59 E8        30.05F                  

JORDAN           N/A     81  53  37 E12       30.01F                  

MALTA          SUNNY     79  57  47 SE14      29.96F                  

SIDNEY         FAIR      76  59  55 E13       30.05F                  

WOLF POINT     FAIR      80  58  46 E10       30.03S                  

POPLAR           N/A     75  55  50 E13       30.04SSCOBEY           N/A     77  50  38 E2        30.04                   

--------------------------------



MTZ028.42-056.058-201800-

SOUTHCENTRAL AND SOUTHEAST MONTANA

  

CITY           SKY/WX    TMP DP  RH WIND       PRES   REMARKS

BAKER          FAIR      77  59  53 E6        30.08R                  

BILLINGS       FAIR      75  55  49 VRB5      30.03F                  

LIVINGSTON     FAIR      79  46  31 NW9       30.07F                  

MILES CITY     FAIR      80  58  46 E7        30.01F                  

BIG TIMBER     SUNNY     75  50  41 NW6G12    30.09S                  

EKALAKA          N/A     80  51  36 NE8       30.05                   

HARLOWTON      FAIR      72  51  47 SE3       30.08S                  

--------------------------------



REGIONAL REPORTS...DAKOTAS

  

CITY           SKY/WX    TMP DP  RH WIND       PRES   REMARKS

WILLISTON      FAIR      75  56  51 E9        30.07S                  

MINOT          PTSUNNY   75  56  51 N13       30.04S                  

DICKINSON      PTSUNNY   69  58  67 NE8       30.07S                  

BEACH          FAIR      73  61  64 E10       30.10S                  

CROSBY         FAIR      72  52  49 VRB7      30.09R                  

TIOGA          FAIR      73  54  49 N8        30.10R                  

WATFORD CITY   FAIR      73  54  49 NE9       30.07R                  

BISMARCK       FAIR      75  58  55 N12       30.03S                  

GRAND FORKS    CLOUDY    69  66  90 N13       29.94R                  

FARGO          CLOUDY    70  66  87 NW13      29.93R                  

BUFFALO SD       N/A     81  52  36 NE10      30.00F                  

RAPID CITY     FAIR      77  62  59 E7        30.08R                  

--------------------------------



REGIONAL REPORTS...WYOMING/IDAHO/WASHINGTON

  

CITY           SKY/WX    TMP DP  RH WIND       PRES   REMARKS

GILLETTE       FAIR      82  52  35 S14       30.08S                  

SHERIDAN       FAIR      84  54  35 VRB5      30.04S                  

BUFFALO WY     FAIR      79  53  40 SE6       30.11S                  

CODY           FAIR      77  49  37 VRB3      30.11F                  

YELLOWSTONE LA   N/A     63  43  48 CALM      30.34S                  

IDAHO FALLS    FAIR      76  47  35 W3        30.12S                  

SALMON         FAIR      73  40  30 CALM      30.07F                  

BOISE          FAIR      78  48  34 VRB5      29.99F                  

SPOKANE        FAIR      66  41  40 S13       30.04R                  

--------------------------------



REGIONAL REPORTS...ALBERTA

  

CITY           SKY/WX    TMP DP  RH WIND       PRES   REMARKS

CALGARY        MOSUNNY   70  52  52 S10       29.83F                  

CARDSTON         N/A     77  37  24 S10G17      N/A                   

FORT MCMURRAY  SUNNY     70  57  64 E8        29.99F                  

HIGH LEVEL     PTSUNNY   63  54  72 E5        30.06S                  

LETHBRIDGE     SUNNY     79  41  25 W9G17     29.87F                  

LLOYDMINSTER   MOSUNNY   68  59  73 E15       29.94F                  

MEDICINE HAT   MOSUNNY   82  52  34 S18       29.87F                  

ONEFOUR          N/A     77  50  38 S12G20      N/A                   

PEACE RIVER    LGT RAIN  59  57  94 NE9       29.94S                  

PINCHER CREEK  SUNNY     73  37  27 SW17G26   29.90F                  

RAYMOND          N/A     81  37  21 SW13        N/A                   

--------------------------------



REGIONAL REPORTS...SASKATCHEWAN

  

CITY           SKY/WX    TMP DP  RH WIND       PRES   REMARKS

CORONACH         N/A     75  54  46 E13G18      N/A                   

CYPRESS HILLS    N/A     72  50  46 S14G20      N/A                   

ESTEVAN        PTSUNNY   72  55  56 E8        30.08R                  

MOOSE JAW        N/A     77  55  47 SE12        N/A                   

PRINCE ALBERT  MOSUNNY   75  59  57 S8        30.03S                  

REGINA         PTSUNNY   75  52  43 SE9G17    30.06S                  

ROCKGLEN         N/A     75  50  41 SE13N/A                   

SASKATOON      CLOUDY    75  61  60 NW6       30.00S                  

SWIFT CURRENT  SUNNY     79  54  41 SE22G28   29.98F                  

VAL MARIE        N/A     79  46  31 S17G25      N/A                   

--------------------------------